Year,Month,Day,Hour,Minute,Value (Times are PST for temperature in C)
2015,04,28,00,00,11.10
2015,04,28,00,01,11.10
2015,04,28,00,02,11.10
2015,04,28,00,03,11.10
2015,04,28,00,04,11.10
2015,04,28,00,05,11.10
2015,04,28,00,06,11.10
2015,04,28,00,07,11.10
2015,04,28,00,08,11.10
2015,04,28,00,09,11.10
2015,04,28,00,10,11.10
2015,04,28,00,11,11.10
2015,04,28,00,12,11.10
2015,04,28,00,13,11.10
2015,04,28,00,14,11.10
2015,04,28,00,15,11.10
2015,04,28,00,16,11.10
2015,04,28,00,17,11.10
2015,04,28,00,18,11.10
2015,04,28,00,19,11.10
2015,04,28,00,20,11.10
2015,04,28,00,21,11.10
2015,04,28,00,22,11.10
2015,04,28,00,23,11.10
2015,04,28,00,24,11.10
2015,04,28,00,25,11.10
2015,04,28,00,26,11.10
2015,04,28,00,27,11.00
2015,04,28,00,28,11.00
2015,04,28,00,29,11.00
2015,04,28,00,30,11.00
2015,04,28,00,31,11.00
2015,04,28,00,32,11.00
2015,04,28,00,33,11.00
2015,04,28,00,34,10.90
2015,04,28,00,35,11.00
2015,04,28,00,36,11.00
2015,04,28,00,37,10.90
2015,04,28,00,38,10.90
2015,04,28,00,39,10.90
2015,04,28,00,40,10.90
2015,04,28,00,41,10.90
2015,04,28,00,42,10.90
2015,04,28,00,43,10.90
2015,04,28,00,44,10.90
2015,04,28,00,45,10.90
2015,04,28,00,46,10.90
2015,04,28,00,47,10.90
2015,04,28,00,48,10.90
2015,04,28,00,49,10.90
2015,04,28,00,50,10.90
2015,04,28,00,51,10.90
2015,04,28,00,52,10.80
2015,04,28,00,53,10.80
2015,04,28,00,54,10.80
2015,04,28,00,55,10.80
2015,04,28,00,56,10.80
2015,04,28,00,57,10.80
2015,04,28,00,58,10.70
2015,04,28,00,59,10.70
2015,04,28,01,00,10.70
2015,04,28,01,01,10.70
2015,04,28,01,02,10.70
2015,04,28,01,03,10.70
2015,04,28,01,04,10.70
2015,04,28,01,05,10.70
2015,04,28,01,06,10.70
2015,04,28,01,07,10.70
2015,04,28,01,08,10.70
2015,04,28,01,09,10.70
2015,04,28,01,10,10.60
2015,04,28,01,11,10.60
2015,04,28,01,12,10.60
2015,04,28,01,13,10.60
2015,04,28,01,14,10.60
2015,04,28,01,15,10.60
2015,04,28,01,16,10.60
2015,04,28,01,17,10.60
2015,04,28,01,18,10.60
2015,04,28,01,19,10.60
2015,04,28,01,20,10.60
2015,04,28,01,21,10.60
2015,04,28,01,22,10.60
2015,04,28,01,23,10.60
2015,04,28,01,24,10.60
2015,04,28,01,25,10.60
2015,04,28,01,26,10.60
2015,04,28,01,27,10.60
2015,04,28,01,28,10.60
2015,04,28,01,29,10.60
2015,04,28,01,30,10.60
2015,04,28,01,31,10.60
2015,04,28,01,32,10.60
2015,04,28,01,33,10.60
2015,04,28,01,34,10.60
2015,04,28,01,35,10.70
2015,04,28,01,36,10.70
2015,04,28,01,37,10.70
2015,04,28,01,38,10.70
2015,04,28,01,39,10.70
2015,04,28,01,40,10.70
2015,04,28,01,41,10.70
2015,04,28,01,42,10.70
2015,04,28,01,43,10.70
2015,04,28,01,44,10.70
2015,04,28,01,45,10.70
2015,04,28,01,46,10.70
2015,04,28,01,47,10.70
2015,04,28,01,48,10.70
2015,04,28,01,49,10.70
2015,04,28,01,50,10.70
2015,04,28,01,51,10.70
2015,04,28,01,52,10.70
2015,04,28,01,53,10.70
2015,04,28,01,54,10.80
2015,04,28,01,55,10.80
2015,04,28,01,56,10.80
2015,04,28,01,57,10.80
2015,04,28,01,58,10.80
2015,04,28,01,59,10.80
2015,04,28,02,00,10.80
2015,04,28,02,01,10.80
2015,04,28,02,02,10.90
2015,04,28,02,03,10.90
2015,04,28,02,04,10.90
2015,04,28,02,05,10.90
2015,04,28,02,06,10.90
2015,04,28,02,07,10.90
2015,04,28,02,08,10.90
2015,04,28,02,09,10.90
2015,04,28,02,10,10.90
2015,04,28,02,11,10.90
2015,04,28,02,12,11.00
2015,04,28,02,13,11.00
2015,04,28,02,14,11.00
2015,04,28,02,15,11.10
2015,04,28,02,16,11.10
2015,04,28,02,17,11.10
2015,04,28,02,18,11.10
2015,04,28,02,19,11.10
2015,04,28,02,20,11.10
2015,04,28,02,21,11.10
2015,04,28,02,22,11.10
2015,04,28,02,23,11.10
2015,04,28,02,24,11.20
2015,04,28,02,25,11.20
2015,04,28,02,26,11.20
2015,04,28,03,47,11.60
2015,04,28,03,48,11.60
2015,04,28,03,49,11.60
2015,04,28,03,50,11.60
2015,04,28,03,51,11.60
2015,04,28,03,52,11.60
2015,04,28,03,53,11.60
2015,04,28,03,54,11.60
2015,04,28,03,55,11.60
2015,04,28,03,56,11.70
2015,04,28,03,57,11.70
2015,04,28,03,58,11.70
2015,04,28,03,59,11.80
2015,04,28,04,00,11.80
2015,04,28,04,01,11.90
2015,04,28,04,02,11.90
2015,04,28,04,03,11.90
2015,04,28,04,04,12.00
2015,04,28,04,05,12.10
2015,04,28,04,06,12.10
2015,04,28,04,07,12.20
2015,04,28,04,08,12.20
2015,04,28,04,09,12.30
2015,04,28,04,10,12.30
2015,04,28,04,11,12.30
2015,04,28,04,12,12.40
2015,04,28,04,13,12.40
2015,04,28,04,14,12.50
2015,04,28,04,15,12.60
2015,04,28,04,16,12.70
2015,04,28,04,17,12.90
2015,04,28,04,18,13.00
2015,04,28,04,19,13.20
2015,04,28,04,20,13.30
2015,04,28,04,21,13.40
2015,04,28,04,22,13.40
2015,04,28,04,23,13.50
2015,04,28,04,24,13.60
2015,04,28,04,25,13.70
2015,04,28,04,26,13.70
2015,04,28,04,27,13.70
2015,04,28,04,28,13.80
2015,04,28,04,29,13.80
2015,04,28,04,30,13.80
2015,04,28,04,31,13.80
2015,04,28,04,32,13.80
2015,04,28,04,33,13.80
2015,04,28,04,34,13.80
2015,04,28,04,35,13.80
2015,04,28,04,36,13.80
2015,04,28,04,37,13.90
2015,04,28,04,38,14.00
2015,04,28,04,39,14.10
2015,04,28,04,40,14.20
2015,04,28,04,41,14.20
2015,04,28,04,42,14.20
2015,04,28,04,43,14.20
2015,04,28,04,44,14.20
2015,04,28,04,45,14.20
2015,04,28,04,46,14.20
2015,04,28,04,47,14.30
2015,04,28,04,48,14.30
2015,04,28,04,49,14.30
2015,04,28,04,50,14.30
2015,04,28,04,51,14.40
2015,04,28,04,52,14.40
2015,04,28,04,53,14.50
2015,04,28,04,54,14.60
2015,04,28,04,55,14.60
2015,04,28,04,56,14.70
2015,04,28,04,57,14.80
2015,04,28,04,58,14.80
2015,04,28,04,59,14.90
2015,04,28,05,00,14.90
2015,04,28,05,01,15.00
2015,04,28,05,02,15.00
2015,04,28,05,03,15.00
2015,04,28,05,04,15.10
2015,04,28,05,05,15.10
2015,04,28,05,06,15.00
2015,04,28,05,07,15.00
2015,04,28,05,08,15.00
2015,04,28,05,09,14.90
2015,04,28,05,10,14.90
2015,04,28,05,11,14.90
2015,04,28,05,12,14.80
2015,04,28,05,13,14.80
2015,04,28,05,14,14.80
2015,04,28,05,15,14.80
2015,04,28,05,16,14.70
2015,04,28,05,17,14.70
2015,04,28,05,18,14.70
2015,04,28,05,19,14.70
2015,04,28,05,20,14.60
2015,04,28,05,21,14.60
2015,04,28,05,22,14.60
2015,04,28,05,23,14.50
2015,04,28,05,24,14.40
2015,04,28,05,25,14.40
2015,04,28,05,26,14.40
2015,04,28,05,27,14.40
2015,04,28,05,28,14.40
2015,04,28,05,29,14.40
2015,04,28,05,30,14.40
2015,04,28,05,31,14.40
2015,04,28,05,32,14.40
2015,04,28,05,33,14.40
2015,04,28,05,34,14.40
2015,04,28,05,35,14.40
2015,04,28,05,36,14.40
2015,04,28,05,37,14.40
2015,04,28,05,38,14.40
2015,04,28,05,39,14.40
2015,04,28,05,40,14.40
2015,04,28,05,41,14.40
2015,04,28,05,42,14.40
2015,04,28,05,43,14.40
2015,04,28,05,44,14.40
2015,04,28,05,45,14.40
2015,04,28,05,46,14.40
2015,04,28,05,47,14.40
2015,04,28,05,48,14.50
2015,04,28,05,49,14.50
2015,04,28,05,50,14.50
2015,04,28,05,51,14.50
2015,04,28,05,52,14.50
2015,04,28,05,53,14.60
2015,04,28,05,54,14.60
2015,04,28,05,55,14.50
2015,04,28,05,56,14.50
2015,04,28,05,57,14.50
2015,04,28,05,58,14.40
2015,04,28,05,59,14.30
2015,04,28,06,00,14.20
2015,04,28,06,01,14.10
2015,04,28,06,02,14.00
2015,04,28,06,03,13.90
2015,04,28,06,04,13.80
2015,04,28,06,05,13.70
2015,04,28,06,06,13.60
2015,04,28,06,07,13.50
2015,04,28,06,08,13.30
2015,04,28,06,09,13.10
2015,04,28,06,10,12.80
2015,04,28,06,11,12.60
2015,04,28,06,12,12.30
2015,04,28,06,13,12.10
2015,04,28,06,14,11.90
2015,04,28,06,15,11.80
2015,04,28,06,16,11.60
2015,04,28,06,17,11.50
2015,04,28,06,18,11.30
2015,04,28,06,19,11.20
2015,04,28,06,20,11.10
2015,04,28,06,21,11.10
2015,04,28,06,22,11.00
2015,04,28,06,23,10.90
2015,04,28,06,24,10.90
2015,04,28,06,25,10.80
2015,04,28,06,26,10.80
2015,04,28,06,27,10.70
2015,04,28,06,28,10.70
2015,04,28,06,29,10.60
2015,04,28,06,30,10.60
2015,04,28,06,31,10.50
2015,04,28,06,32,10.50
2015,04,28,06,33,10.40
2015,04,28,06,34,10.40
2015,04,28,06,35,10.40
2015,04,28,06,36,10.40
2015,04,28,06,37,10.40
2015,04,28,06,38,10.40
2015,04,28,06,39,10.40
2015,04,28,06,40,10.40
2015,04,28,06,41,10.40
2015,04,28,06,42,10.40
2015,04,28,06,43,10.40
2015,04,28,06,44,10.30
2015,04,28,06,45,10.30
2015,04,28,06,46,10.30
2015,04,28,06,47,10.30
2015,04,28,06,48,10.30
2015,04,28,06,49,10.30
2015,04,28,06,50,10.30
2015,04,28,06,51,10.30
2015,04,28,06,52,10.30
2015,04,28,06,53,10.20
2015,04,28,06,54,10.20
2015,04,28,06,55,10.20
2015,04,28,06,56,10.20
2015,04,28,06,57,10.20
2015,04,28,06,58,10.20
2015,04,28,06,59,10.20
2015,04,28,07,00,10.20
2015,04,28,07,01,10.20
2015,04,28,07,02,10.20
2015,04,28,07,03,10.20
2015,04,28,07,04,10.20
2015,04,28,07,05,10.20
2015,04,28,07,06,10.20
2015,04,28,07,07,10.20
2015,04,28,07,08,10.20
2015,04,28,07,09,10.20
2015,04,28,07,10,10.20
2015,04,28,07,11,10.10
2015,04,28,07,12,10.10
2015,04,28,07,13,10.10
2015,04,28,07,14,10.10
2015,04,28,07,15,10.00
2015,04,28,07,16,10.00
2015,04,28,07,17,9.90
2015,04,28,07,18,9.90
2015,04,28,07,19,9.90
2015,04,28,07,20,9.90
2015,04,28,07,21,9.90
2015,04,28,07,22,9.90
2015,04,28,07,23,9.90
2015,04,28,07,24,9.90
2015,04,28,07,25,9.90
2015,04,28,07,26,9.90
2015,04,28,07,27,9.90
2015,04,28,07,28,9.90
2015,04,28,07,29,9.90
2015,04,28,07,30,9.90
2015,04,28,07,31,9.90
2015,04,28,07,32,10.00
2015,04,28,07,33,10.00
2015,04,28,07,34,10.00
2015,04,28,07,35,10.00
2015,04,28,07,36,10.10
2015,04,28,07,37,10.10
2015,04,28,07,38,10.10
2015,04,28,07,39,10.10
2015,04,28,07,40,10.10
2015,04,28,07,41,10.10
2015,04,28,07,42,10.10
2015,04,28,07,43,10.10
2015,04,28,07,44,10.00
2015,04,28,07,45,10.00
2015,04,28,07,46,10.00
2015,04,28,07,47,10.00
2015,04,28,07,48,10.00
2015,04,28,07,49,10.00
2015,04,28,07,50,10.00
2015,04,28,07,51,10.00
2015,04,28,07,52,10.00
2015,04,28,07,53,9.90
2015,04,28,07,54,9.90
2015,04,28,07,55,9.90
2015,04,28,07,56,9.90
2015,04,28,07,57,9.90
2015,04,28,07,58,9.90
2015,04,28,07,59,9.90
2015,04,28,08,00,9.80
2015,04,28,08,01,9.80
2015,04,28,08,02,9.80
2015,04,28,08,03,9.80
2015,04,28,08,04,9.80
2015,04,28,08,05,9.80
2015,04,28,08,06,9.80
2015,04,28,08,07,9.80
2015,04,28,08,08,9.80
2015,04,28,08,09,9.80
2015,04,28,08,10,9.90
2015,04,28,08,11,9.90
2015,04,28,08,12,9.90
2015,04,28,08,13,9.90
2015,04,28,08,14,9.90
2015,04,28,08,15,9.90
2015,04,28,08,16,9.90
2015,04,28,08,17,9.80
2015,04,28,08,18,9.80
2015,04,28,08,19,9.80
2015,04,28,08,20,9.80
2015,04,28,08,21,9.90
2015,04,28,08,22,9.90
2015,04,28,08,23,9.90
2015,04,28,08,24,10.00
2015,04,28,08,25,10.10
2015,04,28,08,26,10.20
2015,04,28,08,27,10.20
2015,04,28,08,28,10.20
2015,04,28,08,29,10.30
2015,04,28,08,30,10.30
2015,04,28,08,31,10.30
2015,04,28,08,32,10.30
2015,04,28,08,33,10.30
2015,04,28,08,34,10.30
2015,04,28,08,35,10.30
2015,04,28,08,36,10.30
2015,04,28,08,37,10.30
2015,04,28,08,38,10.30
2015,04,28,08,39,10.40
2015,04,28,08,40,10.40
2015,04,28,08,41,10.40
2015,04,28,08,42,10.40
2015,04,28,08,43,10.40
2015,04,28,08,44,10.40
2015,04,28,08,45,10.50
2015,04,28,08,46,10.50
2015,04,28,08,47,10.50
2015,04,28,08,48,10.60
2015,04,28,08,49,10.60
2015,04,28,08,50,10.60
2015,04,28,08,51,10.70
2015,04,28,08,52,10.70
2015,04,28,08,53,10.70
2015,04,28,08,54,10.70
2015,04,28,08,55,10.60
2015,04,28,08,56,10.60
2015,04,28,08,57,10.60
2015,04,28,08,58,10.50
2015,04,28,08,59,10.50
2015,04,28,09,00,10.50
2015,04,28,09,01,10.50
2015,04,28,09,02,10.50
2015,04,28,09,03,10.50
2015,04,28,09,04,10.50
2015,04,28,09,05,10.50
2015,04,28,09,06,10.50
2015,04,28,09,07,10.50
2015,04,28,09,08,10.60
2015,04,28,09,09,10.60
2015,04,28,09,10,10.60
2015,04,28,09,11,10.60
2015,04,28,09,12,10.60
2015,04,28,09,13,10.70
2015,04,28,09,14,10.70
2015,04,28,09,15,10.70
2015,04,28,09,16,10.70
2015,04,28,09,17,10.60
2015,04,28,09,18,10.70
2015,04,28,09,19,10.70
2015,04,28,09,20,10.70
2015,04,28,09,21,10.70
2015,04,28,09,22,10.70
2015,04,28,09,23,10.80
2015,04,28,09,24,10.80
2015,04,28,09,25,10.80
2015,04,28,09,26,10.90
2015,04,28,09,27,11.00
2015,04,28,09,28,11.00
2015,04,28,09,29,11.10
2015,04,28,09,30,11.10
2015,04,28,09,31,11.10
2015,04,28,09,32,11.20
2015,04,28,09,33,11.20
2015,04,28,09,34,11.30
2015,04,28,09,35,11.30
2015,04,28,09,36,11.30
2015,04,28,09,37,11.30
2015,04,28,09,38,11.30
2015,04,28,09,39,11.30
2015,04,28,09,40,11.30
2015,04,28,09,41,11.20
2015,04,28,09,42,11.20
2015,04,28,09,43,11.20
2015,04,28,09,44,11.20
2015,04,28,09,45,11.20
2015,04,28,09,46,11.20
2015,04,28,09,47,11.20
2015,04,28,09,48,11.20
2015,04,28,09,49,11.20
2015,04,28,09,50,11.30
2015,04,28,09,51,11.30
2015,04,28,09,52,11.30
2015,04,28,09,53,11.40
2015,04,28,09,54,11.40
2015,04,28,09,55,11.50
2015,04,28,09,56,11.50
2015,04,28,09,57,11.60
2015,04,28,09,58,11.60
2015,04,28,09,59,11.60
2015,04,28,10,00,11.60
2015,04,28,10,01,11.60
2015,04,28,10,02,11.60
2015,04,28,10,03,11.60
2015,04,28,10,04,11.60
2015,04,28,10,05,11.60
2015,04,28,10,06,11.70
2015,04,28,10,07,11.70
2015,04,28,10,08,11.70
2015,04,28,10,09,11.70
2015,04,28,10,10,11.80
2015,04,28,10,11,11.80
2015,04,28,10,12,11.80
2015,04,28,10,13,11.80
2015,04,28,10,14,11.70
2015,04,28,10,15,11.60
2015,04,28,10,16,11.60
2015,04,28,10,17,11.60
2015,04,28,10,18,11.60
2015,04,28,10,19,11.50
2015,04,28,10,20,11.50
2015,04,28,10,21,11.40
2015,04,28,10,22,11.40
2015,04,28,10,23,11.40
2015,04,28,10,24,11.40
2015,04,28,10,25,11.40
2015,04,28,10,26,11.40
2015,04,28,10,27,11.40
2015,04,28,10,28,11.40
2015,04,28,10,29,11.40
2015,04,28,10,30,11.40
2015,04,28,10,31,11.30
2015,04,28,10,32,11.30
2015,04,28,10,33,11.30
2015,04,28,10,34,11.40
2015,04,28,10,35,11.40
2015,04,28,10,36,11.40
2015,04,28,10,37,11.40
2015,04,28,10,38,11.50
2015,04,28,10,39,11.50
2015,04,28,10,40,11.50
2015,04,28,10,41,11.60
2015,04,28,10,42,11.60
2015,04,28,10,43,11.60
2015,04,28,10,44,11.60
2015,04,28,10,45,11.60
2015,04,28,10,46,11.60
2015,04,28,10,47,11.60
2015,04,28,10,48,11.60
2015,04,28,10,49,11.60
2015,04,28,10,50,11.70
2015,04,28,10,51,11.70
2015,04,28,10,52,11.70
2015,04,28,10,53,11.70
2015,04,28,10,54,11.70
2015,04,28,10,55,11.70
2015,04,28,10,56,11.80
2015,04,28,10,57,11.80
2015,04,28,10,58,11.80
2015,04,28,10,59,11.90
2015,04,28,11,00,11.90
2015,04,28,11,01,12.00
2015,04,28,11,02,12.00
2015,04,28,11,03,12.10
2015,04,28,11,04,12.10
2015,04,28,11,05,12.10
2015,04,28,11,06,12.10
2015,04,28,11,07,12.00
2015,04,28,11,08,11.90
2015,04,28,11,09,11.90
2015,04,28,11,10,11.90
2015,04,28,11,11,11.90
2015,04,28,11,12,11.90
2015,04,28,11,13,11.80
2015,04,28,11,14,11.80
2015,04,28,11,15,11.90
2015,04,28,11,16,11.90
2015,04,28,11,17,11.90
2015,04,28,11,18,12.00
2015,04,28,11,19,12.00
2015,04,28,11,20,12.00
2015,04,28,11,21,12.00
2015,04,28,11,22,12.00
2015,04,28,11,23,12.00
2015,04,28,11,24,12.10
2015,04,28,11,25,12.10
2015,04,28,11,26,12.20
2015,04,28,11,27,12.30
2015,04,28,11,28,12.30
2015,04,28,11,29,12.40
2015,04,28,11,30,12.40
2015,04,28,11,31,12.40
2015,04,28,11,32,12.40
2015,04,28,11,33,12.40
2015,04,28,11,34,12.30
2015,04,28,11,35,12.30
2015,04,28,11,36,12.20
2015,04,28,11,37,12.20
2015,04,28,11,38,12.10
2015,04,28,11,39,12.00
2015,04,28,11,40,11.90
2015,04,28,11,41,11.90
2015,04,28,11,42,11.80
2015,04,28,11,43,11.80
2015,04,28,11,44,11.80
2015,04,28,11,45,11.70
2015,04,28,11,46,11.70
2015,04,28,11,47,11.60
2015,04,28,11,48,11.60
2015,04,28,11,49,11.50
2015,04,28,11,50,11.50
2015,04,28,11,51,11.50
2015,04,28,11,52,11.60
2015,04,28,11,53,11.60
2015,04,28,11,54,11.60
2015,04,28,11,55,11.60
2015,04,28,11,56,11.60
2015,04,28,11,57,11.60
2015,04,28,11,58,11.70
2015,04,28,11,59,11.70
2015,04,28,12,00,11.70
2015,04,28,12,01,11.70
2015,04,28,12,02,11.70
2015,04,28,12,03,11.70
2015,04,28,12,04,11.70
2015,04,28,12,05,11.70
2015,04,28,12,06,11.60
2015,04,28,12,07,11.60
2015,04,28,12,08,11.60
2015,04,28,12,09,11.50
2015,04,28,12,10,11.50
2015,04,28,12,11,11.40
2015,04,28,12,12,11.40
2015,04,28,12,13,11.40
2015,04,28,12,14,11.30
2015,04,28,12,15,11.30
2015,04,28,12,16,11.30
2015,04,28,12,17,11.30
2015,04,28,12,18,11.30
2015,04,28,12,19,11.30
2015,04,28,12,20,11.30
2015,04,28,12,21,11.30
2015,04,28,12,22,11.20
2015,04,28,12,23,11.20
2015,04,28,12,24,11.30
2015,04,28,12,25,11.30
2015,04,28,12,26,11.30
2015,04,28,12,27,11.30
2015,04,28,12,28,11.40
2015,04,28,12,29,11.40
2015,04,28,12,30,11.40
2015,04,28,12,31,11.40
2015,04,28,12,32,11.40
2015,04,28,12,33,11.40
2015,04,28,12,34,11.50
2015,04,28,12,35,11.50
2015,04,28,12,36,11.60
2015,04,28,12,37,11.60
2015,04,28,12,38,11.60
2015,04,28,12,39,11.60
2015,04,28,12,40,11.60
2015,04,28,12,41,11.70
2015,04,28,12,42,11.70
2015,04,28,12,43,11.70
2015,04,28,12,44,11.70
2015,04,28,12,45,11.70
2015,04,28,12,46,11.70
2015,04,28,12,47,11.70
2015,04,28,12,48,11.70
2015,04,28,12,49,11.70
2015,04,28,12,50,11.80
2015,04,28,12,51,11.80
2015,04,28,12,52,12.00
2015,04,28,12,53,12.10
2015,04,28,12,54,12.20
2015,04,28,12,55,12.30
2015,04,28,12,56,12.30
2015,04,28,12,57,12.30
2015,04,28,12,58,12.30
2015,04,28,12,59,12.30
2015,04,28,13,00,12.30
2015,04,28,13,01,12.30
2015,04,28,13,02,12.30
2015,04,28,13,03,12.30
2015,04,28,13,04,12.30
2015,04,28,13,05,12.20
2015,04,28,13,06,12.20
2015,04,28,13,07,12.20
2015,04,28,13,08,12.30
2015,04,28,13,09,12.30
2015,04,28,13,10,12.40
2015,04,28,13,11,12.50
2015,04,28,13,12,12.60
2015,04,28,13,13,12.70
2015,04,28,13,14,12.60
2015,04,28,13,15,12.70
2015,04,28,13,16,12.70
2015,04,28,13,17,12.70
2015,04,28,13,18,12.70
2015,04,28,13,19,12.60
2015,04,28,13,20,12.60
2015,04,28,13,21,12.50
2015,04,28,13,22,12.50
2015,04,28,13,23,12.40
2015,04,28,13,24,12.30
2015,04,28,13,25,12.20
2015,04,28,13,26,12.20
2015,04,28,13,27,12.20
2015,04,28,13,28,12.30
2015,04,28,13,29,12.30
2015,04,28,13,30,12.40
2015,04,28,13,31,12.50
2015,04,28,13,32,12.60
2015,04,28,13,33,12.70
2015,04,28,13,34,12.70
2015,04,28,13,35,12.80
2015,04,28,13,36,12.80
2015,04,28,13,37,12.80
2015,04,28,13,38,12.80
2015,04,28,13,39,12.80
2015,04,28,13,40,12.70
2015,04,28,13,41,12.70
2015,04,28,13,42,12.70
2015,04,28,13,43,12.70
2015,04,28,13,44,12.80
2015,04,28,13,45,12.80
2015,04,28,13,46,12.80
2015,04,28,13,47,12.90
2015,04,28,13,48,12.90
2015,04,28,13,49,12.90
2015,04,28,13,50,12.90
2015,04,28,13,51,12.80
2015,04,28,13,52,12.70
2015,04,28,13,53,12.60
2015,04,28,13,54,12.60
2015,04,28,13,55,12.60
2015,04,28,13,56,12.60
2015,04,28,13,57,12.70
2015,04,28,13,58,12.70
2015,04,28,13,59,12.60
2015,04,28,14,00,12.70
2015,04,28,14,01,12.70
2015,04,28,14,02,12.70
2015,04,28,14,03,12.80
2015,04,28,14,04,12.80
2015,04,28,14,05,12.90
2015,04,28,14,06,13.00
2015,04,28,14,07,13.00
2015,04,28,14,08,13.10
2015,04,28,14,09,13.10
2015,04,28,14,10,13.20
2015,04,28,14,11,13.20
2015,04,28,14,12,13.20
2015,04,28,14,13,13.20
2015,04,28,14,14,13.10
2015,04,28,14,15,13.20
2015,04,28,14,16,13.20
2015,04,28,14,17,13.20
2015,04,28,14,18,13.20
2015,04,28,14,19,13.10
2015,04,28,14,20,13.10
2015,04,28,14,21,13.10
2015,04,28,14,22,13.10
2015,04,28,14,23,13.10
2015,04,28,14,24,13.10
2015,04,28,14,25,13.10
2015,04,28,14,26,13.10
2015,04,28,14,27,13.00
2015,04,28,14,28,13.10
2015,04,28,14,29,13.10
2015,04,28,14,30,13.10
2015,04,28,14,31,13.10
2015,04,28,14,32,13.10
2015,04,28,14,33,13.20
2015,04,28,14,34,13.20
2015,04,28,14,35,13.10
2015,04,28,14,36,13.10
2015,04,28,14,37,13.00
2015,04,28,14,38,12.90
2015,04,28,14,39,12.90
2015,04,28,14,40,12.80
2015,04,28,14,41,12.70
2015,04,28,14,42,12.60
2015,04,28,14,43,12.60
2015,04,28,14,44,12.60
2015,04,28,14,45,12.60
2015,04,28,14,46,12.60
2015,04,28,14,47,12.60
2015,04,28,14,48,12.60
2015,04,28,14,49,12.60
2015,04,28,14,50,12.60
2015,04,28,14,51,12.70
2015,04,28,14,52,12.70
2015,04,28,14,53,12.70
2015,04,28,14,54,12.70
2015,04,28,14,55,12.70
2015,04,28,14,56,12.70
2015,04,28,14,57,12.70
2015,04,28,14,58,12.70
2015,04,28,14,59,12.70
2015,04,28,15,00,12.70
2015,04,28,15,01,12.70
2015,04,28,15,02,12.70
2015,04,28,15,03,12.80
2015,04,28,15,04,12.90
2015,04,28,15,05,13.00
2015,04,28,15,06,13.20
2015,04,28,15,07,13.30
2015,04,28,15,08,13.30
2015,04,28,15,09,13.40
2015,04,28,15,10,13.50
2015,04,28,15,11,13.50
2015,04,28,15,12,13.50
2015,04,28,15,13,13.60
2015,04,28,15,14,13.60
2015,04,28,15,15,13.50
2015,04,28,15,16,13.50
2015,04,28,15,17,13.50
2015,04,28,15,18,13.60
2015,04,28,15,19,13.60
2015,04,28,15,20,13.50
2015,04,28,15,21,13.50
2015,04,28,15,22,13.50
2015,04,28,15,23,13.40
2015,04,28,15,24,13.40
2015,04,28,15,25,13.30
2015,04,28,15,26,13.30
2015,04,28,15,27,13.20
2015,04,28,15,28,13.20
2015,04,28,15,29,13.20
2015,04,28,15,30,13.20
2015,04,28,15,31,13.20
2015,04,28,15,32,13.10
2015,04,28,15,33,13.10
2015,04,28,15,34,13.10
2015,04,28,15,35,13.10
2015,04,28,15,36,13.10
2015,04,28,15,37,13.10
2015,04,28,15,38,13.10
2015,04,28,15,39,13.20
2015,04,28,15,40,13.30
2015,04,28,15,41,13.40
2015,04,28,15,42,13.50
2015,04,28,15,43,13.60
2015,04,28,15,44,13.70
2015,04,28,15,45,13.70
2015,04,28,15,46,13.80
2015,04,28,15,47,13.80
2015,04,28,15,48,13.70
2015,04,28,15,49,13.70
2015,04,28,15,50,13.70
2015,04,28,15,51,13.70
2015,04,28,15,52,13.70
2015,04,28,15,53,13.80
2015,04,28,15,54,13.80
2015,04,28,15,55,13.80
2015,04,28,15,56,13.80
2015,04,28,15,57,13.80
2015,04,28,15,58,13.80
2015,04,28,15,59,13.80
2015,04,28,16,00,13.80
2015,04,28,16,01,13.80
2015,04,28,16,02,13.80
2015,04,28,16,03,13.80
2015,04,28,16,04,13.80
2015,04,28,16,05,13.80
2015,04,28,16,06,13.70
2015,04,28,16,07,13.70
2015,04,28,16,08,13.80
2015,04,28,16,09,13.80
2015,04,28,16,10,13.80
2015,04,28,16,11,13.80
2015,04,28,16,12,13.80
2015,04,28,16,13,13.80
2015,04,28,16,14,13.90
2015,04,28,16,15,13.90
2015,04,28,16,16,14.00
2015,04,28,16,17,14.10
2015,04,28,16,18,14.10
2015,04,28,16,19,14.10
2015,04,28,16,20,14.20
2015,04,28,16,21,14.20
2015,04,28,16,22,14.20
2015,04,28,16,23,14.20
2015,04,28,16,24,14.20
2015,04,28,16,25,14.20
2015,04,28,16,26,14.20
2015,04,28,16,27,14.20
2015,04,28,16,28,14.20
2015,04,28,16,29,14.20
2015,04,28,16,30,14.20
2015,04,28,16,31,14.10
2015,04,28,16,32,14.10
2015,04,28,16,33,14.00
2015,04,28,16,34,14.00
2015,04,28,16,35,14.00
2015,04,28,16,36,14.00
2015,04,28,16,37,14.00
2015,04,28,16,38,13.90
2015,04,28,16,39,13.80
2015,04,28,16,40,13.80
2015,04,28,16,41,13.70
2015,04,28,16,42,13.70
2015,04,28,16,43,13.70
2015,04,28,16,44,13.70
2015,04,28,16,45,13.70
2015,04,28,16,46,13.70
2015,04,28,16,47,13.80
2015,04,28,16,48,13.80
2015,04,28,16,49,13.70
2015,04,28,16,50,13.60
2015,04,28,16,51,13.50
2015,04,28,16,52,13.40
2015,04,28,16,53,13.30
2015,04,28,16,54,13.20
2015,04,28,16,55,13.10
2015,04,28,16,56,13.10
2015,04,28,16,57,13.10
2015,04,28,16,58,13.10
2015,04,28,16,59,13.10
2015,04,28,17,00,13.10
2015,04,28,17,01,13.10
2015,04,28,17,02,13.20
2015,04,28,17,03,13.30
2015,04,28,17,04,13.40
2015,04,28,17,05,13.50
2015,04,28,17,06,13.60
2015,04,28,17,07,13.60
2015,04,28,17,08,13.70
2015,04,28,17,09,13.70
2015,04,28,17,10,13.70
2015,04,28,17,11,13.70
2015,04,28,17,12,13.80
2015,04,28,17,13,13.80
2015,04,28,17,14,13.80
2015,04,28,17,15,13.80
2015,04,28,17,16,13.80
2015,04,28,17,17,13.80
2015,04,28,17,18,13.80
2015,04,28,17,19,13.70
2015,04,28,17,20,13.70
2015,04,28,17,21,13.60
2015,04,28,17,22,13.60
2015,04,28,17,23,13.60
2015,04,28,17,24,13.60
2015,04,28,17,25,13.60
2015,04,28,17,26,13.70
2015,04,28,17,27,13.60
2015,04,28,17,28,13.60
2015,04,28,17,29,13.60
2015,04,28,17,30,13.60
2015,04,28,17,31,13.50
2015,04,28,17,32,13.50
2015,04,28,17,33,13.50
2015,04,28,17,34,13.50
2015,04,28,17,35,13.60
2015,04,28,17,36,13.70
2015,04,28,17,37,13.70
2015,04,28,17,38,13.70
2015,04,28,17,39,13.70
2015,04,28,17,40,13.70
2015,04,28,17,41,13.80
2015,04,28,17,42,13.80
2015,04,28,17,43,13.90
2015,04,28,17,44,13.90
2015,04,28,17,45,14.00
2015,04,28,17,46,14.10
2015,04,28,17,47,14.10
2015,04,28,17,48,14.10
2015,04,28,17,49,14.10
2015,04,28,17,50,14.10
2015,04,28,17,51,14.10
2015,04,28,17,52,14.10
2015,04,28,17,53,14.10
2015,04,28,17,54,14.10
2015,04,28,17,55,14.10
2015,04,28,17,56,14.10
2015,04,28,17,57,14.10
2015,04,28,17,58,14.00
2015,04,28,17,59,14.00
2015,04,28,18,00,14.00
2015,04,28,18,01,14.00
2015,04,28,18,02,14.00
2015,04,28,18,03,14.00
2015,04,28,18,04,14.10
2015,04,28,18,05,14.10
2015,04,28,18,06,14.20
2015,04,28,18,07,14.20
2015,04,28,18,08,14.20
2015,04,28,18,09,14.30
2015,04,28,18,10,14.30
2015,04,28,18,11,14.40
2015,04,28,18,12,14.40
2015,04,28,18,13,14.50
2015,04,28,18,14,14.60
2015,04,28,18,15,14.70
2015,04,28,18,16,14.70
2015,04,28,18,17,14.80
2015,04,28,18,18,14.90
2015,04,28,18,19,15.00
2015,04,28,18,20,15.00
2015,04,28,18,21,15.00
2015,04,28,18,22,15.00
2015,04,28,18,23,15.00
2015,04,28,18,24,15.00
2015,04,28,18,25,15.00
2015,04,28,18,26,15.00
2015,04,28,18,27,15.10
2015,04,28,18,28,15.10
2015,04,28,18,29,15.10
2015,04,28,18,30,15.20
2015,04,28,18,31,15.20
2015,04,28,18,32,15.20
2015,04,28,18,33,15.30
2015,04,28,18,34,15.30
2015,04,28,18,35,15.40
2015,04,28,18,36,15.40
2015,04,28,18,37,15.40
2015,04,28,18,38,15.30
2015,04,28,18,39,15.30
2015,04,28,18,40,15.20
2015,04,28,18,41,15.10